Weather History for Tallil, Iraq

Change the Weather History Date:

Wednesday, August 3, 2011

  Actual Average Record
Temperature  
Mean Temperature 106 °F -  
Max Temperature 127 °F - - ()
Min Temperature 84 °F - - ()
Cooling Degree Days 40    
Growing Degree Days 56 (Base 50)    
Moisture  
Dew Point 39 °F    
Average Humidity 10    
Maximum Humidity 17    
Minimum Humidity 5    
Precipitation  
Precipitation 0.00 in - - ()
Sea Level Pressure  
Sea Level Pressure 29.41 in    
Wind  
Wind Speed 7 mph ()    
Max Wind Speed 18 mph    
Max Gust Speed 25 mph    
Visibility 4.6 miles    
Events      
T = Trace of Precipitation, MM = Missing Value Source: Averaged Metar Reports

Daily Weather History Graph

Daily Weather History Graph

Search for Another Location

Airport:

Trip Planner

Search our weather history database for the weather conditions in past years. The results will help you decide how hot, cold, wet, or windy it might be!

Date:

Astronomy

Aug. 03, 2011 Rise Set
Actual Time 5:13 AM AST 6:49 PM AST
Civil Twilight 4:47 AM AST 7:15 PM AST
Nautical Twilight 4:16 AM AST 7:47 PM AST
Astronomical Twilight 3:43 AM AST 8:19 PM AST
Moon 9:03 AM AST (8/3) 9:01 PM AST (8/3)
Length of Visible Light 14h 28m
Length of Day
13h 35m
Waxing Crescent, 17% of the Moon is Illuminated
Aug 3
Waxing Crescent
Aug 6
First Quarter
Aug 13
Full
Aug 22
Last Quarter
Aug 29
New

Hourly Weather History & Observations

Time (AST) Temp. Dew Point Humidity Pressure Visibility Wind Dir Wind Speed Gust Speed Precip Events Conditions
12:55 AM 96.8 °F 33.8 °F 11% 29.40 in 6.2 mi Variable 4.6 mph - N/A   Clear
1:55 AM 87.8 °F 32.0 °F 14% 29.40 in 6.2 mi Variable 5.8 mph - N/A   Clear
3:55 AM 86.0 °F 35.6 °F 17% 29.41 in 6.2 mi Variable 3.5 mph - N/A   Clear
4:55 AM 86.0 °F 35.6 °F 17% 29.41 in 5.0 mi Variable 4.6 mph - N/A   Haze
5:55 AM 84.2 °F 33.8 °F 16% 29.42 in 6.2 mi Variable 5.8 mph - N/A   Clear
6:55 AM 93.2 °F 35.6 °F 13% 29.43 in 6.2 mi West 9.2 mph - N/A   Clear
7:55 AM 100.4 °F 39.2 °F 12% 29.43 in 6.2 mi West 11.5 mph - N/A   Clear
8:55 AM 105.8 °F 39.2 °F 10% 29.46 in 5.6 mi NW 11.5 mph - N/A   Clear
9:55 AM 111.2 °F 41.0 °F 9% 29.47 in 5.6 mi NW 8.1 mph - N/A   Clear
10:55 AM 113.0 °F 41.0 °F 9% 29.46 in 5.6 mi NNW 6.9 mph - N/A   Clear
11:55 AM 120.2 °F 39.2 °F 7% 29.43 in 5.0 mi NNW 8.1 mph 17.3 mph N/A   Widespread Dust
12:55 PM 123.8 °F 35.6 °F 5% 29.42 in 6.2 mi NW 5.8 mph 13.8 mph N/A   Clear
1:55 PM 125.6 °F 35.6 °F 5% 29.40 in 6.2 mi Variable 6.9 mph - N/A   Clear
2:55 PM 127.4 °F 35.6 °F 5% 29.38 in 6.2 mi North 8.1 mph - N/A   Clear
3:55 PM 123.8 °F 33.8 °F 5% 29.36 in 6.2 mi North 11.5 mph 17.3 mph N/A   Clear
4:55 PM 123.8 °F 35.6 °F 5% 29.36 in 6.2 mi North 16.1 mph - N/A   Clear
5:04 PM 123.8 °F 35.6 °F 5% 29.36 in 2.5 mi North 16.1 mph - N/A   Widespread Dust
5:30 PM 120.2 °F 37.4 °F 6% 29.36 in 3.7 mi North 18.4 mph 25.3 mph N/A   Widespread Dust
5:55 PM 120.2 °F 37.4 °F 6% 29.36 in 5.6 mi North 10.4 mph 20.7 mph N/A   Widespread Dust
6:55 PM 113.0 °F 37.4 °F 8% 29.38 in 5.6 mi North 8.1 mph - N/A   Clear
7:22 PM 114.8 °F 50.0 °F 12% 29.39 in 1.5 mi NNW 11.5 mph - N/A   Widespread Dust
7:55 PM 109.4 °F 50.0 °F 14% 29.41 in 1.0 mi NNW 13.8 mph - N/A   Widespread Dust
8:55 PM 107.6 °F 48.2 °F 14% 29.42 in 1.0 mi NNW 13.8 mph 19.6 mph N/A   Widespread Dust
9:55 PM 105.8 °F 48.2 °F 14% 29.42 in 1.0 mi NNW 11.5 mph - N/A   Widespread Dust
10:55 PM 102.2 °F 46.4 °F 15% 29.43 in 1.2 mi NNW 9.2 mph - N/A   Widespread Dust
11:55 PM 100.4 °F 48.2 °F 17% 29.42 in 1.6 mi NNW 10.4 mph - N/A   Widespread Dust